GSAT 0206

Last updated on Mon May 30 2016 01:43:32 GMT+0000 (Coordinated Universal Time)

1 40890U 15045B 16150.60941225 -.00000038 00000-0 00000+0 0 9999 2 40890 57.2683 322.5506 0002165 32.3415 327.6741 1.70474747 4464

Satellite not in orbit

GSAT 0206